| time (UTC) | temp C | wind direction | speed KPH | gust KPH | rain 1hr cm | rain 24hr cm | rain mn cm | humidity % | barometer mb |
| 20260507064511 | 15 | 172 | 3.2 | 8.0 | 0.00 | 0.15 | 0.00 | 90 | 1013.2 |
| 20260507063011 | 13 | 169 | 1.6 | 4.8 | 0.00 | 0.15 | 0.00 | 91 | 1013.2 |
| 20260507061507 | 13 | 202 | 1.6 | 6.4 | 0.00 | 0.15 | 0.00 | 92 | 1013.2 |
| 20260507060014 | 13 | 159 | 3.2 | 9.7 | 0.00 | 0.15 | 0.00 | 92 | 1013.2 |
| 20260507054502 | 12 | 183 | 3.2 | 6.4 | 0.00 | 0.15 | 0.15 | 93 | 1013.0 |
| 20260507053100 | 12 | 74 | 8.0 | 12.9 | 0.00 | 0.15 | 0.15 | 93 | 1012.8 |
| 20260507051605 | 12 | 146 | 1.6 | 8.0 | 0.00 | 0.15 | 0.15 | 93 | 1012.9 |
| 20260507050100 | 12 | 111 | 1.6 | 6.4 | 0.00 | 0.15 | 0.15 | 93 | 1012.8 |
| 20260507044558 | 12 | 130 | 0.0 | 6.4 | 0.00 | 0.15 | 0.15 | 93 | 1012.7 |
| 20260507043103 | 12 | 96 | 3.2 | 6.4 | 0.00 | 0.15 | 0.15 | 93 | 1012.6 |
| 20260507041558 | 11 | 113 | 3.2 | 8.0 | 0.00 | 0.15 | 0.15 | 93 | 1012.5 |
| 20260507040059 | 11 | 120 | 4.8 | 12.9 | 0.00 | 0.15 | 0.15 | 93 | 1012.3 |
| 20260507034557 | 11 | 148 | 1.6 | 4.8 | 0.00 | 0.15 | 0.15 | 92 | 1012.2 |
| 20260507033056 | 11 | 136 | 4.8 | 16.1 | 0.00 | 0.15 | 0.15 | 92 | 1012.2 |
| 20260507031554 | 12 | 112 | 3.2 | 16.1 | 0.00 | 0.15 | 0.15 | 92 | 1012.3 |
| 20260507030053 | 12 | 164 | 3.2 | 16.1 | 0.00 | 0.15 | 0.15 | 92 | 1012.2 |
| 20260507024603 | 12 | 111 | 8.0 | 12.9 | 0.10 | 0.15 | 0.15 | 92 | 1012.1 |
| 20260507023049 | 12 | 93 | 8.0 | 16.1 | 0.10 | 0.15 | 0.15 | 92 | 1012.1 |
| 20260507021548 | 12 | 159 | 6.4 | 20.9 | 0.10 | 0.15 | 0.15 | 92 | 1012.1 |
| 20260507020103 | 12 | 161 | 4.8 | 14.5 | 0.13 | 0.15 | 0.15 | 92 | 1012.3 |
| 20260507014553 | 12 | 144 | 6.4 | 14.5 | 0.03 | 0.05 | 0.05 | 91 | 1012.1 |
| 20260507013047 | 12 | 175 | 4.8 | 11.3 | 0.03 | 0.05 | 0.05 | 91 | 1012.1 |
| 20260507011543 | 12 | 130 | 3.2 | 8.0 | 0.03 | 0.05 | 0.05 | 90 | 1012.1 |
| 20260507010041 | 12 | 123 | 4.8 | 14.5 | 0.00 | 0.03 | 0.03 | 89 | 1012.0 |
| 20260507004544 | 13 | 171 | 6.4 | 16.1 | 0.00 | 0.03 | 0.03 | 89 | 1011.9 |
| 20260507003042 | 13 | 152 | 6.4 | 12.9 | 0.00 | 0.03 | 0.03 | 88 | 1012.0 |
| 20260507001542 | 13 | 129 | 4.8 | 17.7 | 0.00 | 0.03 | 0.03 | 88 | 1012.0 |
| 20260507000039 | 13 | 194 | 6.4 | 14.5 | 0.00 | 0.03 | 0.03 | 87 | 1012.1 |
| 20260506234540 | 13 | 94 | 8.0 | 20.9 | 0.00 | 0.03 | 0.03 | 87 | 1012.0 |
| 20260506233039 | 13 | 193 | 3.2 | 14.5 | 0.00 | 0.03 | 0.03 | 88 | 1012.2 |
| 20260506231548 | 13 | 156 | 8.0 | 14.5 | 0.00 | 0.03 | 0.03 | 88 | 1012.2 |
| 20260506230051 | 13 | 158 | 3.2 | 12.9 | 0.00 | 0.03 | 0.03 | 88 | 1012.4 |
| 20260506224538 | 13 | 161 | 3.2 | 14.5 | 0.00 | 0.03 | 0.03 | 88 | 1012.3 |
| 20260506223049 | 14 | 134 | 8.0 | 19.3 | 0.00 | 0.03 | 0.03 | 88 | 1012.2 |
| 20260506221536 | 14 | 178 | 4.8 | 24.1 | 0.00 | 0.03 | 0.03 | 88 | 1012.3 |
| 20260506220037 | 14 | 153 | 8.0 | 20.9 | 0.00 | 0.03 | 0.03 | 89 | 1012.2 |
| 20260506214535 | 14 | 117 | 6.4 | 16.1 | 0.00 | 0.03 | 0.03 | 90 | 1012.4 |
| 20260506213056 | 14 | 215 | 3.2 | 16.1 | 0.00 | 0.03 | 0.03 | 90 | 1012.4 |
| 20260506211547 | 14 | 98 | 8.0 | 14.5 | 0.00 | 0.03 | 0.03 | 90 | 1012.3 |
| 20260506210037 | 14 | 161 | 8.0 | 17.7 | 0.00 | 0.03 | 0.03 | 89 | 1012.4 |
| 20260506204538 | 15 | 191 | 4.8 | 12.9 | 0.00 | 0.03 | 0.03 | 88 | 1012.2 |
| 20260506203032 | 15 | 163 | 4.8 | 12.9 | 0.00 | 0.03 | 0.03 | 87 | 1012.2 |
| 20260506201535 | 15 | 159 | 1.6 | 8.0 | 0.00 | 0.03 | 0.03 | 87 | 1012.2 |
| 20260506200028 | 15 | 113 | 4.8 | 11.3 | 0.00 | 0.03 | 0.03 | 86 | 1012.0 |
| 20260506194530 | 15 | 109 | 3.2 | 9.7 | 0.00 | 0.03 | 0.03 | 85 | 1011.9 |
| 20260506193030 | 15 | 130 | 3.2 | 9.7 | 0.00 | 0.03 | 0.03 | 84 | 1011.9 |
| 20260506191535 | 15 | 161 | 3.2 | 12.9 | 0.00 | 0.03 | 0.03 | 84 | 1011.7 |
| 20260506190030 | 15 | 128 | 4.8 | 14.5 | 0.00 | 0.03 | 0.03 | 84 | 1011.5 |
| 20260506184529 | 15 | 155 | 3.2 | 6.4 | 0.00 | 0.03 | 0.03 | 84 | 1011.4 |
| 20260506183036 | 15 | 110 | 1.6 | 11.3 | 0.00 | 0.03 | 0.03 | 84 | 1011.4 |
| 20260506181528 | 15 | 173 | 3.2 | 12.9 | 0.00 | 0.03 | 0.03 | 84 | 1011.3 |
| 20260506180028 | 15 | 165 | 6.4 | 14.5 | 0.00 | 0.03 | 0.03 | 83 | 1011.3 |
| 20260506174526 | 15 | 192 | 3.2 | 16.1 | 0.00 | 0.03 | 0.03 | 83 | 1011.2 |
| 20260506173028 | 15 | 132 | 4.8 | 16.1 | 0.00 | 0.03 | 0.03 | 82 | 1011.1 |
| 20260506171530 | 16 | 209 | 4.8 | 11.3 | 0.00 | 0.03 | 0.03 | 83 | 1011.1 |
| 20260506170030 | 16 | 153 | 4.8 | 17.7 | 0.00 | 0.03 | 0.03 | 83 | 1011.0 |
| 20260506164525 | 16 | 125 | 4.8 | 17.7 | 0.00 | 0.03 | 0.03 | 83 | 1010.9 |
| 20260506163027 | 16 | 193 | 8.0 | 16.1 | 0.00 | 0.03 | 0.03 | 84 | 1011.1 |
| 20260506161527 | 16 | 189 | 9.7 | 16.1 | 0.00 | 0.03 | 0.03 | 83 | 1011.1 |
| 20260506160026 | 16 | 180 | 6.4 | 16.1 | 0.00 | 0.03 | 0.03 | 83 | 1011.1 |
| 20260506154627 | 16 | 154 | 8.0 | 27.4 | 0.00 | 0.03 | 0.03 | 81 | 1011.1 |
| 20260506153022 | 16 | 105 | 6.4 | 14.5 | 0.00 | 0.03 | 0.03 | 82 | 1011.1 |
| 20260506151522 | 17 | 216 | 4.8 | 14.5 | 0.00 | 0.03 | 0.03 | 82 | 1011.0 |
| 20260506150021 | 17 | 121 | 0.0 | 0.0 | 0.00 | 0.03 | 0.03 | 78 | 1011.0 |
| 20260506144519 | 17 | 135 | 0.0 | 0.0 | 0.00 | 0.03 | 0.03 | 75 | 1010.9 |
| 20260506143029 | 17 | 144 | 0.0 | 0.0 | 0.00 | 0.03 | 0.03 | 74 | 1011.0 |
| 20260506141519 | 17 | 163 | 4.8 | 20.9 | 0.00 | 0.03 | 0.03 | 74 | 1011.1 |
| 20260506140019 | 17 | 175 | 8.0 | 19.3 | 0.00 | 0.03 | 0.03 | 73 | 1011.0 |
| 20260506134518 | 18 | 157 | 6.4 | 19.3 | 0.00 | 0.03 | 0.03 | 70 | 1010.9 |
| 20260506133015 | 18 | 188 | 8.0 | 29.0 | 0.00 | 0.03 | 0.03 | 68 | 1011.2 |
| 20260506131515 | 17 | 148 | 9.7 | 20.9 | 0.00 | 0.03 | 0.03 | 66 | 1011.4 |
| 20260506130016 | 18 | 142 | 6.4 | 22.5 | 0.00 | 0.03 | 0.03 | 66 | 1011.5 |
| 20260506124513 | 18 | 161 | 11.3 | 25.7 | 0.00 | 0.03 | 0.03 | 66 | 1011.6 |
| 20260506123018 | 18 | 156 | 6.4 | 17.7 | 0.00 | 0.03 | 0.03 | 64 | 1011.4 |
| 20260506121521 | 18 | 216 | 11.3 | 27.4 | 0.00 | 0.03 | 0.03 | 62 | 1011.6 |
| 20260506120013 | 20 | 188 | 12.9 | 27.4 | 0.00 | 0.03 | 0.03 | 60 | 1011.5 |
| 20260506114510 | 18 | 180 | 19.3 | 32.2 | 0.00 | 0.03 | 0.03 | 63 | 1011.4 |
| 20260506113016 | 18 | 168 | 11.3 | 25.7 | 0.00 | 0.03 | 0.03 | 65 | 1011.5 |
| 20260506111506 | 17 | 136 | 9.7 | 22.5 | 0.00 | 0.03 | 0.03 | 69 | 1011.7 |
| 20260506110010 | 17 | 153 | 9.7 | 22.5 | 0.00 | 0.03 | 0.03 | 68 | 1011.8 |
| 20260506104505 | 17 | 159 | 8.0 | 17.7 | 0.00 | 0.03 | 0.03 | 70 | 1011.9 |
| 20260506103009 | 17 | 138 | 9.7 | 24.1 | 0.00 | 0.03 | 0.03 | 67 | 1011.9 |
| 20260506101501 | 17 | 190 | 6.4 | 37.0 | 0.00 | 0.03 | 0.03 | 70 | 1012.0 |
| 20260506100059 | 17 | 159 | 11.3 | 30.6 | 0.00 | 0.03 | 0.03 | 70 | 1011.8 |
| 20260506094604 | 17 | 131 | 9.7 | 20.9 | 0.00 | 0.03 | 0.03 | 71 | 1012.0 |
| 20260506093058 | 17 | 187 | 8.0 | 25.7 | 0.00 | 0.03 | 0.03 | 74 | 1011.8 |
| 20260506091606 | 16 | 214 | 11.3 | 27.4 | 0.00 | 0.03 | 0.03 | 75 | 1012.1 |
| 20260506090058 | 16 | 167 | 0.0 | 0.0 | 0.00 | 0.03 | 0.03 | 75 | 1011.9 |
| 20260506084614 | 16 | 157 | 0.0 | 20.9 | 0.00 | 0.03 | 0.03 | 75 | 1011.7 |
| 20260506083052 | 16 | 129 | 11.3 | 20.9 | 0.00 | 0.03 | 0.03 | 75 | 1011.7 |
| 20260506081547 | 15 | 175 | 9.7 | 16.1 | 0.00 | 0.03 | 0.03 | 80 | 1011.7 |
| 20260506073051 | 15 | 130 | 8.0 | 24.1 | 0.00 | 0.05 | 0.03 | 82 | 1011.6 |
| 20260506071539 | 15 | 123 | 4.8 | 19.3 | 0.00 | 0.05 | 0.03 | 84 | 1011.7 |